Tracking 19920 objects as of 15-Oct-2019
HD Live streaming from Space Station
objects crossing your sky now

IRIDIUM 33 DEB

Track IRIDIUM 33 DEB now!
10-day predictions


NORAD ID: 35618
Int'l Code: 1997-051QQ
Perigee: 729.8 km
Apogee: 774.7 km
Inclination: 86.3 °
Period: 99.7 minutes
Semi major axis: 7123 km
RCS: 0.0121 m2 (small)
Launch date: September 14, 1997
Source: United States (US)
Launch site: TYURATAM MISSILE AND SPACE COMPLEX (TTMTR)

Note: This is SATELLITE DEBRIS
aabbcc
Your satellite tracking list
Your tracking list is empty




NASA's NSSDC Master Catalog

Two Line Element Set (TLE):
1 35618U 97051QQ  19287.65494422  .00000196  00000-0  51057-4 0  9996
2 35618  86.3423 247.6125 0031550 303.9805  55.8399 14.44069062546730
Source of the keplerian elements: AFSPC